Weather History for Asheville, NC

Change the Weather History Date:

Friday, December 6, 2013

  Actual Average Record
Temperature  
Mean Temperature 60 °F 41 °F  
Max Temperature 70 °F 52 °F 73 °F (1998)
Min Temperature 50 °F 31 °F 5 °F (1937)
Degree Days  
Heating Degree Days 5 24  
Month to date heating degree days 77 138  
Since 1 July heating degree days 960 1005  
Cooling Degree Days 0 0  
Month to date cooling degree days 0 0  
Year to date cooling degree days 860 863  
Growing Degree Days 10 (Base 50)    
Moisture  
Dew Point 60 °F    
Average Humidity 87    
Maximum Humidity 100    
Minimum Humidity 73    
Precipitation  
Precipitation 0.58 in 0.12 in 1.77 in (1976)
Month to date precipitation 0.96 0.79  
Year to date precipitation 68.51 42.77  
Snow  
Snow 0.00 in 0.10 in 1.70 in (1901)
Month to date snowfall 0.0 0.1  
Since 1 July snowfall 0.2 0.2  
Snow Depth 0.00 in    
Sea Level Pressure  
Sea Level Pressure 29.99 in    
Wind  
Wind Speed 11 mph (South)    
Max Wind Speed 25 mph    
Max Gust Speed 31 mph    
Visibility 8 miles    
Events Rain    
T = Trace of Precipitation, MM = Missing Value Source: NWS Daily Summary

Daily Weather History Graph

Daily Weather History Graph

Search for Another Location

Airport:

Trip Planner

Search our weather history database for the weather conditions in past years. The results will help you decide how hot, cold, wet, or windy it might be!

Date:

Astronomy

Dec. 06, 2013 Rise Set
Actual Time 7:25 AM EST 5:17 PM EST
Civil Twilight 6:57 AM EST 5:45 PM EST
Nautical Twilight 6:25 AM EST 6:16 PM EST
Astronomical Twilight 5:54 AM EST 6:47 PM EST
Moon 10:34 AM EST (12/6) 9:41 PM EST (12/6)
Length of Visible Light 10h 48m
Length of Day
9h 51m
Waxing Crescent, 19% of the Moon is Illuminated
Dec 6
Waxing Crescent
Dec 9
First Quarter
Dec 17
Full
Dec 25
Last Quarter
Jan 1
New

Hourly Weather History & Observations

Time (EST) Temp. Dew Point Humidity Pressure Visibility Wind Dir Wind Speed Gust Speed Precip Events Conditions
12:02 AM 64.4 °F 62.6 °F 94% 30.04 in 4.0 mi ESE 3.5 mph - 0.01 in Rain Light Rain
12:46 AM 64.4 °F 62.6 °F 94% 30.03 in 6.0 mi SSE 6.9 mph - 0.02 in Rain Light Rain
12:54 AM 64.0 °F 63.0 °F 96% 29.97 in 5.0 mi South 10.4 mph - 0.03 in Rain Light Rain
1:54 AM 64.0 °F 63.0 °F 96% 29.96 in 6.0 mi SSE 6.9 mph - 0.04 in Rain Light Rain
2:54 AM 63.0 °F 62.1 °F 97% 29.96 in 10.0 mi South 8.1 mph - 0.00 in   Mostly Cloudy
3:22 AM 64.4 °F 62.6 °F 94% 30.03 in 10.0 mi Variable 5.8 mph - N/A   Overcast
3:50 AM 64.4 °F 62.6 °F 94% 30.00 in 9.0 mi SSE 9.2 mph - 0.01 in Rain Light Rain
3:54 AM 64.0 °F 62.1 °F 93% 29.95 in 10.0 mi South 5.8 mph - 0.01 in Rain Light Rain
4:16 AM 64.4 °F 62.6 °F 94% 30.00 in 10.0 mi SSE 3.5 mph - 0.01 in Rain Light Rain
4:41 AM 64.4 °F 62.6 °F 94% 30.01 in 8.0 mi SE 4.6 mph - 0.03 in Rain Light Rain
4:54 AM 64.9 °F 63.0 °F 93% 29.95 in 10.0 mi Variable 3.5 mph - 0.03 in   Overcast
5:19 AM 64.4 °F 62.6 °F 94% 29.99 in 10.0 mi SSE 5.8 mph - 0.01 in   Overcast
5:26 AM 64.4 °F 62.6 °F 94% 29.99 in 10.0 mi SSE 3.5 mph - 0.01 in   Overcast
5:40 AM 64.4 °F 62.6 °F 94% 29.99 in 5.0 mi SSE 5.8 mph - 0.01 in Rain Light Rain
5:47 AM 64.4 °F 62.6 °F 94% 30.00 in 3.0 mi SE 3.5 mph - 0.02 in Rain Light Rain
5:54 AM 64.0 °F 63.0 °F 96% 29.94 in 3.0 mi SE 4.6 mph - 0.03 in Rain Light Rain
6:54 AM 64.0 °F 62.1 °F 93% 29.95 in 8.0 mi South 10.4 mph 18.4 mph 0.01 in Rain Light Rain
7:05 AM 64.4 °F 62.6 °F 94% 30.01 in 10.0 mi South 8.1 mph - 0.00 in   Overcast
7:54 AM 64.9 °F 61.0 °F 87% 29.98 in 10.0 mi South 9.2 mph 19.6 mph 0.00 in   Overcast
8:06 AM 64.4 °F 60.8 °F 88% 30.04 in 10.0 mi South 13.8 mph 25.3 mph N/A   Mostly Cloudy
8:54 AM 66.0 °F 61.0 °F 84% 29.99 in 10.0 mi South 16.1 mph 20.7 mph N/A   Mostly Cloudy
9:54 AM 66.9 °F 61.0 °F 81% 30.01 in 10.0 mi South 10.4 mph 21.9 mph N/A   Mostly Cloudy
10:33 AM 68.0 °F 60.8 °F 78% 30.07 in 10.0 mi SSW 13.8 mph 25.3 mph N/A   Mostly Cloudy
10:54 AM 68.0 °F 61.0 °F 78% 30.01 in 10.0 mi SSW 18.4 mph 25.3 mph N/A   Overcast
11:54 AM 66.9 °F 60.1 °F 79% 29.99 in 10.0 mi South 13.8 mph 21.9 mph N/A   Overcast
12:54 PM 68.0 °F 60.1 °F 76% 29.96 in 10.0 mi South 20.7 mph 28.8 mph N/A   Overcast
1:38 PM 69.8 °F 60.8 °F 73% 30.01 in 10.0 mi South 11.5 mph 25.3 mph N/A   Mostly Cloudy
1:54 PM 69.1 °F 61.0 °F 75% 29.95 in 10.0 mi SSW 15.0 mph 25.3 mph N/A   Mostly Cloudy
2:02 PM 69.8 °F 60.8 °F 73% 30.00 in 10.0 mi SSW 18.4 mph 26.5 mph N/A   Mostly Cloudy
2:54 PM 69.1 °F 61.0 °F 75% 29.93 in 10.0 mi SSW 16.1 mph 26.5 mph N/A   Mostly Cloudy
3:15 PM 69.8 °F 60.8 °F 73% 29.99 in 10.0 mi South 12.7 mph 26.5 mph N/A   Mostly Cloudy
3:54 PM 68.0 °F 60.1 °F 76% 29.94 in 10.0 mi South 12.7 mph 20.7 mph N/A   Mostly Cloudy
4:09 PM 68.0 °F 60.8 °F 78% 30.00 in 10.0 mi South 11.5 mph 21.9 mph N/A   Overcast
4:26 PM 68.0 °F 60.8 °F 78% 30.00 in 10.0 mi SSW 19.6 mph 27.6 mph N/A   Overcast
4:54 PM 66.9 °F 61.0 °F 81% 29.94 in 10.0 mi South 10.4 mph - 0.00 in Rain Light Rain
5:05 PM 66.2 °F 60.8 °F 83% 29.99 in 10.0 mi South 9.2 mph 23.0 mph 0.00 in   Overcast
5:54 PM 66.9 °F 60.1 °F 79% 29.95 in 10.0 mi SSW 13.8 mph 23.0 mph 0.00 in   Overcast
6:54 PM 66.9 °F 61.0 °F 81% 29.95 in 10.0 mi South 11.5 mph 23.0 mph N/A   Mostly Cloudy
7:54 PM 66.0 °F 61.0 °F 84% 29.94 in 10.0 mi South 16.1 mph 26.5 mph N/A   Overcast
8:54 PM 66.0 °F 61.0 °F 84% 29.95 in 10.0 mi SSW 9.2 mph 19.6 mph 0.00 in Rain Light Rain
9:09 PM 55.4 °F 53.6 °F 94% 30.03 in 10.0 mi NW 17.3 mph 23.0 mph 0.00 in Rain Light Rain
9:16 PM 53.6 °F 50.0 °F 88% 30.04 in 5.0 mi NNW 17.3 mph 26.5 mph 0.02 in Rain Heavy Rain
9:37 PM 51.8 °F 50.0 °F 94% 30.06 in 2.5 mi NNW 19.6 mph 26.5 mph 0.10 in Rain Heavy Rain
9:54 PM 52.0 °F 51.1 °F 97% 30.03 in 3.0 mi NNW 17.3 mph 21.9 mph 0.30 in Rain Heavy Rain
10:16 PM 51.8 °F 51.8 °F 100% 30.08 in 3.0 mi North 10.4 mph 19.6 mph 0.08 in Rain Heavy Rain
10:26 PM 51.8 °F 51.8 °F 100% 30.08 in 8.0 mi North 5.8 mph 17.3 mph 0.09 in Rain Light Rain
10:38 PM 53.6 °F 51.8 °F 94% 30.08 in 10.0 mi NNW 8.1 mph - 0.09 in   Overcast
10:54 PM 52.0 °F 50.0 °F 93% 30.03 in 10.0 mi NNW 9.2 mph - 0.09 in Rain Light Rain
11:54 PM 50.0 °F 48.9 °F 96% 30.05 in 10.0 mi North 11.5 mph - 0.05 in   Overcast